Weather History for Skagway, AK

Change the Weather History Date:

Wednesday, February 1, 2012

  Actual Average Record
Temperature  
Mean Temperature 36 °F -  
Max Temperature 39 °F 30 °F 48 °F (1998)
Min Temperature 32 °F 22 °F -10 °F (1968)
Degree Days  
Heating Degree Days 30    
Moisture  
Dew Point 32 °F    
Average Humidity 86    
Maximum Humidity 100    
Minimum Humidity 70    
Precipitation  
Precipitation 0.60 in - - ()
Sea Level Pressure  
Sea Level Pressure 29.58 in    
Wind  
Wind Speed 11 mph (South)    
Max Wind Speed 18 mph    
Max Gust Speed 28 mph    
Visibility 7 miles    
Events Rain , Snow    
Averages and records for this station are not official NWS values.
T = Trace of Precipitation, MM = Missing Value Source: NWS Daily Summary

Daily Weather History Graph

Daily Weather History Graph

Search for Another Location

Airport:

Trip Planner

Search our weather history database for the weather conditions in past years. The results will help you decide how hot, cold, wet, or windy it might be!

Date:

Astronomy

Feb. 01, 2012 Rise Set
Actual Time 8:12 AM AKST 4:17 PM AKST
Civil Twilight 7:26 AM AKST 5:04 PM AKST
Nautical Twilight 6:36 AM AKST 5:54 PM AKST
Astronomical Twilight 5:48 AM AKST 6:41 PM AKST
Moon 10:22 AM AKST (2/1) 3:31 AM AKST (2/1)
Length of Visible Light 9h 37m
Length of Day
8h 04m
Waxing Gibbous, 66% of the Moon is Illuminated
Feb 1
Waxing Gibbous
Feb 7
Full
Feb 14
Last Quarter
Feb 21
New
Feb 29
First Quarter

Hourly Weather History & Observations

Time (AKST) Temp. Windchill Dew Point Humidity Pressure Visibility Wind Dir Wind Speed Gust Speed Precip Events Conditions
12:53 AM 36.0 °F 26.0 °F 33.1 °F 89% 29.65 in 10.0 mi SSW 17.3 mph - N/A   Overcast
1:24 AM 37.4 °F 27.8 °F 33.8 °F 87% 29.65 in 10.0 mi SSW 17.3 mph 25.3 mph N/A   Overcast
1:40 AM 37.4 °F 27.8 °F 33.8 °F 87% 29.66 in 10.0 mi SSW 17.3 mph 26.5 mph N/A   Mostly Cloudy
1:53 AM 37.0 °F 27.0 °F 33.1 °F 86% 29.66 in 10.0 mi SSW 18.4 mph 27.6 mph N/A   Mostly Cloudy
2:53 AM 37.0 °F 27.0 °F 33.1 °F 86% 29.68 in 10.0 mi SSW 18.4 mph 24.2 mph N/A   Mostly Cloudy
3:53 AM 37.9 °F 30.9 °F 33.1 °F 83% 29.69 in 10.0 mi South 10.4 mph 19.6 mph N/A   Overcast
4:53 AM 37.9 °F 29.2 °F 32.0 °F 79% 29.71 in 10.0 mi SSW 15.0 mph 21.9 mph N/A   Mostly Cloudy
5:53 AM 37.9 °F 28.9 °F 32.0 °F 79% 29.71 in 10.0 mi SSW 16.1 mph 25.3 mph N/A   Overcast
6:53 AM 39.0 °F 31.4 °F 30.9 °F 73% 29.70 in 10.0 mi SSW 12.7 mph 18.4 mph N/A   Overcast
7:53 AM 37.9 °F 29.2 °F 32.0 °F 79% 29.73 in 10.0 mi SSW 15.0 mph 24.2 mph N/A   Overcast
8:53 AM 37.9 °F 32.7 °F 32.0 °F 79% 29.73 in 10.0 mi Variable 6.9 mph 19.6 mph N/A   Overcast
9:53 AM 37.9 °F 29.6 °F 32.0 °F 79% 29.72 in 10.0 mi SSW 13.8 mph 21.9 mph N/A   Overcast
10:53 AM 39.0 °F 31.4 °F 32.0 °F 76% 29.72 in 10.0 mi SSW 12.7 mph 21.9 mph N/A   Overcast
11:53 AM 39.0 °F 31.0 °F 32.0 °F 76% 29.70 in 10.0 mi SSW 13.8 mph - N/A   Overcast
12:53 PM 39.9 °F 31.8 °F 30.9 °F 70% 29.68 in 10.0 mi South 15.0 mph - N/A   Overcast
1:53 PM 39.9 °F 31.4 °F 32.0 °F 73% 29.63 in 10.0 mi SSW 16.1 mph - N/A   Mostly Cloudy
2:53 PM 39.9 °F 31.1 °F 30.9 °F 70% 29.59 in 10.0 mi SSW 17.3 mph 23.0 mph N/A   Overcast
3:20 PM 37.4 °F 28.9 °F 32.0 °F 81% 29.58 in 10.0 mi SSW 13.8 mph - 0.00 in Rain Light Rain
3:53 PM 37.0 °F 30.4 °F 32.0 °F 82% 29.58 in 10.0 mi SSW 9.2 mph - 0.01 in Rain Light Rain
4:18 PM 35.6 °F 29.9 °F 32.0 °F 87% 29.57 in 7.0 mi SSW 6.9 mph - 0.03 in Rain Rain
4:43 PM 33.8 °F - 32.0 °F 93% 29.56 in 4.0 mi Calm Calm - 0.06 in Snow Light Snow
4:53 PM 34.0 °F - 32.0 °F 92% 29.55 in 2.0 mi Calm Calm - 0.08 in Snow Light Snow
5:18 PM 33.8 °F - 32.0 °F 93% 29.54 in 3.0 mi Calm Calm - 0.04 in Snow Light Snow
5:34 PM 33.8 °F 30.8 °F 32.0 °F 93% 29.53 in 2.5 mi Variable 3.5 mph - 0.06 in Snow Light Snow
5:53 PM 33.1 °F - 30.9 °F 92% 29.53 in 1.8 mi Calm Calm - 0.09 in Snow Light Snow
6:01 PM 32.0 °F 27.5 °F 30.2 °F 93% 29.53 in 2.5 mi East 4.6 mph - 0.01 in Snow Light Snow
6:27 PM 33.8 °F - 30.2 °F 87% 29.51 in 3.0 mi Calm Calm - 0.05 in Snow Light Snow
6:53 PM 33.1 °F - 30.9 °F 92% 29.51 in 4.0 mi Calm Calm - 0.08 in Snow Light Snow
7:09 PM 33.8 °F 29.6 °F 30.2 °F 87% 29.50 in 4.0 mi NE 4.6 mph - 0.02 in Snow Light Snow
7:53 PM 34.0 °F 28.8 °F 33.1 °F 96% 29.49 in 5.0 mi Variable 5.8 mph - 0.07 in Snow Light Snow
8:09 PM 33.8 °F - 32.0 °F 93% 29.48 in 4.0 mi Calm Calm - 0.02 in Snow Light Snow
8:43 PM 33.8 °F - 32.0 °F 93% 29.46 in 2.0 mi Calm Calm - 0.08 in Snow Light Snow
8:53 PM 32.0 °F 28.7 °F 32.0 °F 100% 29.46 in 2.0 mi ESE 3.5 mph - 0.09 in Snow Light Snow
9:09 PM 33.8 °F 28.6 °F 32.0 °F 93% 29.45 in 5.0 mi Variable 5.8 mph - 0.02 in Snow Light Snow
9:53 PM 33.1 °F - 32.0 °F 96% 29.44 in 4.0 mi Calm Calm - 0.06 in Snow Light Snow
10:53 PM 33.1 °F 30.0 °F 32.0 °F 96% 29.42 in 4.0 mi Variable 3.5 mph - 0.06 in Snow Light Snow
11:53 PM 33.1 °F 30.0 °F 32.0 °F 96% 29.42 in 8.0 mi Variable 3.5 mph - 0.06 in Rain Light Rain